Погода в Алексеевске

Россия / Иркутская область     57°50′17″N   108°21′04″E
темп.,
°C
ветер,
м/с
пор.,
м/с
влажн.,
%
обл.,
%
осадки,
мм/ч
давл.,
гПа
погр.,
м
25 февраля, чт
чт2523:00−21с11100100 0.3 103021
02:00−23сз11100100 0.4 103120
05:00−26зсз1110099 0.1 103020
08:00−29сз1110099 0.1 103219
11:00−23св129039 0.0 1031233
14:00−18всв238062 0.0 1028706
17:00−19в368796 0.0 1026573
20:00−24всв269360 0.0 1026140
26 февраля, пт
пт2623:00−25всв229433 0.0 102349
02:00−23ссв249367 0.0 1019148
05:00−21зсз1199100 0.6 101879
08:00−23ююз1299100 1.0 102026
11:00−19зюз3689100 0.0 1023511
14:00−15зюз3586100 0.1 1023845
17:00−16з3587100 0.1 1024786
20:00−18зсз3796100 0.2 1027480
27 февраля, сб
сб2723:00−20сз3798100 0.4 1029576
02:00−23юз1191100 0.4 103020
05:00−25ююз2292100 0.0 103120
08:00−26ююз239687 0.0 103253
11:00−21зюз4788100 0.2 1032949
14:00−20зюз5680100 0.3 10321533
17:00−21зюз4680100 0.1 10331567
20:00−25юз2394100 0.1 103649
28 февраля, вс
вс2823:00−27ююз239592 0.0 103640
02:00−25ююз399796 0.1 1036353
05:00−25юз3994100 0.0 1037513
08:00−25ююз2898100 0.1 1037422
11:00−23зюз4789100 0.1 10371027
14:00−21зюз4783100 0.2 10361489
17:00−20зюз4785100 0.1 10361489
20:00−24зюз1294100 0.1 103734
1 марта, пн
пн123:00−25зюз2297100 0.0 103979
02:00−27зюз2298100 0.1 104059
05:00−27юз2399100 0.1 1040115
08:00−27юз2499100 0.1 1039156
11:00−24юз3691100 0.1 1037707
14:00−22зюз3585100 0.1 10351151
17:00−21зюз3687100 0.1 10331126
20:00−26юз1198100 0.1 103320